Location: Unspecified
(0.0000°N, 0.0000°E)
Time: 15:25:36
(UTC+00:00)

CZ-3C DEB - Pass Details

Date: 19 February 2026
Orbit: 380 x 28980 km, 20.3° (Epoch: 21 March)

Event Time Altitude Azimuth Distance (km) Brightness Sun altitude
Rises 20:21:06 0° 273° (W) 20,273 ? -31.2°
Reaches altitude 10° 21:16:45 10° 280° (W) 26,913 ? -44.7°
Enters shadow 02:24:01 11° 292° (WNW) 14,237 ? -55.8°
Exits shadow 03:06:33 18° 113° (ESE) 2,142 ? -45.7°
Drops below altitude 10° 03:07:21 10° 113° (ESE) 2,438 ? -45.5°
Sets 03:08:42 0° 112° (ESE) 3,014 ? -45.2°
